7 * 24
多渠道服务支持
STARLINK-11747 是 SpaceX 星链计划中的一颗低轨通信卫星,属于该系列的多个发射批次之一。该卫星旨在为全球用户提供高速互联网服务,支持偏远地区的网络接入。它运行在约 550 公里的轨道高度,配备先进通信设备,具备高带宽和低延迟特性。作为星链星座的一部分,STARLINK-11747 与其他卫星协同工作,提升全球网络覆盖能力。该卫星的发射和运行体现了 SpaceX 在商业航天和全球通信基础设施建设方面的持续进展。
美国
(US)
| 数据来源 | 国际轨道数据 |
| 星历时间: | 2025-11-02T19:02:27+0800 15小时前 查看轨道信息 |
| 半长轴: | 6734.483km |
| 偏心率: | 0.0001643 |
| 轨道倾角: | 42.999° |
| 近地点辐角 | 269.315° |
| 升交点赤经 | 76.190° |
| 平近点角 | 90.753° |
| 近地点: | 355.241km |
| 远地点: | 357.455km |
| 周期: | 91.668分钟 |
| 每日圈数: | 15.708922 |